Simultaneous Nadir Overpasses (SNOs) Predictions

Prediction of SNOs between GOES-14 and NPP Satellite Orbit:

Table of predicted SNOs for the next 14.0 days since TLE Epoch: 7/18/2020
Index Date Time (GOES-14) GOES-14 Lat,Lon NPP Lat,Lon Distance(km) Time Diff (sec)
1 07/19/2020 08:29:59 -0.29,-104.29 0.23,-106.55 257.53 80
2 07/20/2020 08:13:56 -0.28,-104.29 -0.82,-102.03 259.16 80
3 07/21/2020 20:33:14 0.31,-104.50 -0.31,-107.34 323.66 80
4 07/22/2020 20:17:10 0.30,-104.51 0.68,-102.81 193.39 80
5 07/24/2020 08:36:18 -0.33,-104.31 0.51,-108.08 429.62 80
6 07/25/2020 08:20:14 -0.32,-104.31 -0.48,-103.54 87.12 80
7 07/26/2020 20:39:32 0.35,-104.51 -0.65,-108.86 496.26 80
8 07/27/2020 20:23:28 0.33,-104.52 0.40,-104.34 21.05 80
9 07/30/2020 08:23:52 -0.35,-104.33 -0.20,-105.07 84.78 80
10 07/31/2020 08:07:48 -0.34,-104.33 -1.19,-100.54 431.68 80
